| time (UTC) | temp F | wind direction | speed MPH | gust MPH | rain 1hr in | rain 24hr in | rain mn in | humidity % | barometer mb |
| 20260504050503 | 43 | 348 | 2.0 | 3.0 | 0.00 | 0.00 | 0.00 | 86 | 1019.7 |
| 20260504045504 | 42 | 250 | 2.0 | 4.0 | 0.00 | 0.00 | 0.00 | 88 | 1019.7 |
| 20260504045004 | 41 | 250 | 2.0 | 4.0 | 0.00 | 0.00 | 0.00 | 89 | 1019.7 |
| 20260504044004 | 40 | 95 | 3.0 | 4.0 | 0.00 | 0.00 | 0.00 | 89 | 1019.5 |
| 20260504043004 | 38 | 66 | 2.0 | 4.0 | 0.00 | 0.00 | 0.00 | 90 | 1019.5 |
| 20260504042504 | 37 | 77 | 2.0 | 2.0 | 0.00 | 0.00 | 0.00 | 90 | 1019.5 |
| 20260504042004 | 37 | 56 | 3.0 | 4.0 | 0.00 | 0.00 | 0.00 | 90 | 1019.5 |
| 20260504041504 | 36 | 63 | 3.0 | 4.0 | 0.00 | 0.00 | 0.00 | 90 | 1019.5 |
| 20260504041004 | 36 | 95 | 3.0 | 4.0 | 0.00 | 0.00 | 0.00 | 91 | 1019.5 |
| 20260504040004 | 35 | 163 | 2.0 | 4.0 | 0.00 | 0.00 | 0.00 | 90 | 1019.3 |
| 20260504035504 | 35 | 98 | 2.0 | 2.0 | 0.00 | 0.00 | 0.00 | 90 | 1019.4 |
| 20260504034504 | 35 | 98 | 2.0 | 4.0 | 0.00 | 0.00 | 0.00 | 90 | 1019.1 |
| 20260504033004 | 35 | 37 | 1.0 | 2.0 | 0.00 | 0.00 | 0.00 | 89 | 1019.1 |
| 20260504032504 | 35 | 83 | 1.0 | 2.0 | 0.00 | 0.00 | 0.00 | 88 | 1019.2 |
| 20260504032006 | 35 | 115 | 2.0 | 2.0 | 0.00 | 0.00 | 0.00 | 87 | 1019.2 |
| 20260504031504 | 36 | 98 | 2.0 | 2.0 | 0.00 | 0.00 | 0.00 | 89 | 1019.2 |
| 20260504031004 | 36 | 110 | 2.0 | 2.0 | 0.00 | 0.00 | 0.00 | 89 | 1019.1 |
| 20260504030504 | 36 | 121 | 1.0 | 2.0 | 0.00 | 0.00 | 0.00 | 88 | 1019.1 |
| 20260504030004 | 35 | 136 | 2.0 | 2.0 | 0.00 | 0.00 | 0.00 | 87 | 1019.2 |
| 20260504024504 | 37 | 39 | 2.0 | 3.0 | 0.00 | 0.00 | 0.00 | 88 | 1019.1 |
| 20260504024004 | 37 | 86 | 2.0 | 2.0 | 0.00 | 0.00 | 0.00 | 89 | 1019.0 |
| 20260504023504 | 37 | 85 | 2.0 | 3.0 | 0.00 | 0.00 | 0.00 | 88 | 1019.1 |
| 20260504023004 | 37 | 83 | 2.0 | 3.0 | 0.00 | 0.00 | 0.00 | 88 | 1019.3 |
| 20260504022504 | 36 | 61 | 2.0 | 3.0 | 0.00 | 0.00 | 0.00 | 88 | 1019.3 |
| 20260504021504 | 37 | 60 | 2.0 | 3.0 | 0.00 | 0.00 | 0.00 | 89 | 1019.4 |
| 20260504021004 | 37 | 60 | 2.0 | 3.0 | 0.00 | 0.00 | 0.00 | 89 | 1019.4 |
| 20260504020504 | 37 | 37 | 2.0 | 3.0 | 0.00 | 0.00 | 0.00 | 90 | 1019.2 |
| 20260504020004 | 37 | 57 | 2.0 | 3.0 | 0.00 | 0.00 | 0.00 | 90 | 1019.3 |
| 20260504015503 | 36 | 88 | 2.0 | 2.0 | 0.00 | 0.00 | 0.00 | 89 | 1019.3 |
| 20260504015005 | 36 | 79 | 1.0 | 2.0 | 0.00 | 0.00 | 0.00 | 88 | 1019.3 |
| 20260504014504 | 37 | 83 | 2.0 | 2.0 | 0.00 | 0.00 | 0.00 | 90 | 1019.4 |
| 20260504014004 | 37 | 79 | 2.0 | 2.0 | 0.00 | 0.00 | 0.00 | 90 | 1019.5 |
| 20260504013504 | 36 | 43 | 2.0 | 2.0 | 0.00 | 0.00 | 0.00 | 90 | 1019.4 |
| 20260504013004 | 36 | 344 | 2.0 | 2.0 | 0.00 | 0.00 | 0.00 | 88 | 1019.5 |
| 20260504012504 | 36 | 173 | 1.0 | 2.0 | 0.00 | 0.00 | 0.00 | 87 | 1019.4 |
| 20260504012004 | 37 | 129 | 1.0 | 2.0 | 0.00 | 0.00 | 0.00 | 88 | 1019.3 |
| 20260504011504 | 36 | 107 | 1.0 | 2.0 | 0.00 | 0.00 | 0.00 | 87 | 1019.3 |
| 20260504011004 | 37 | 90 | 1.0 | 2.0 | 0.00 | 0.00 | 0.00 | 86 | 1019.2 |
| 20260504010504 | 38 | 60 | 1.0 | 2.0 | 0.00 | 0.00 | 0.00 | 87 | 1019.2 |
| 20260504005004 | 38 | 48 | 2.0 | 4.0 | 0.00 | 0.00 | 0.00 | 90 | 1019.3 |
| 20260504004504 | 38 | 12 | 2.0 | 3.0 | 0.00 | 0.00 | 0.00 | 91 | 1019.1 |
| 20260504004004 | 38 | 355 | 2.0 | 3.0 | 0.00 | 0.00 | 0.00 | 91 | 1019.2 |
| 20260504003504 | 37 | 9 | 2.0 | 3.0 | 0.00 | 0.00 | 0.00 | 90 | 1019.1 |
| 20260504003004 | 37 | 27 | 1.0 | 2.0 | 0.00 | 0.00 | 0.00 | 89 | 1019.1 |
| 20260504002504 | 38 | 0 | 0.0 | 0.0 | 0.00 | 0.00 | 0.00 | 90 | 1019.3 |
| 20260504002004 | 38 | 0 | 0.0 | 0.0 | 0.00 | 0.00 | 0.00 | 90 | 1019.2 |
| 20260504001505 | 38 | 0 | 0.0 | 0.0 | 0.00 | 0.00 | 0.00 | 91 | 1019.3 |
| 20260504001005 | 37 | 314 | 0.0 | 2.0 | 0.00 | 0.00 | 0.00 | 91 | 1019.2 |
| 20260504000504 | 37 | 314 | 0.0 | 2.0 | 0.00 | 0.00 | 0.00 | 90 | 1019.2 |
| 20260503235504 | 37 | 81 | 1.0 | 2.0 | 0.00 | 0.00 | 0.00 | 90 | 1019.2 |
| 20260503234504 | 37 | 76 | 2.0 | 2.0 | 0.00 | 0.00 | 0.00 | 87 | 1019.2 |
| 20260503234004 | 38 | 45 | 1.0 | 2.0 | 0.00 | 0.00 | 0.00 | 86 | 1019.3 |
| 20260503233504 | 39 | 314 | 1.0 | 2.0 | 0.00 | 0.00 | 0.00 | 88 | 1019.3 |
| 20260503233004 | 39 | 314 | 0.0 | 2.0 | 0.00 | 0.00 | 0.00 | 88 | 1019.4 |
| 20260503232504 | 39 | 181 | 0.0 | 1.0 | 0.00 | 0.00 | 0.00 | 88 | 1019.3 |
| 20260503232004 | 39 | 155 | 0.0 | 2.0 | 0.00 | 0.00 | 0.00 | 89 | 1019.5 |
| 20260503231504 | 39 | 112 | 1.0 | 2.0 | 0.00 | 0.00 | 0.00 | 89 | 1019.5 |
| 20260503230504 | 38 | 68 | 1.0 | 2.0 | 0.00 | 0.00 | 0.00 | 87 | 1019.5 |
| 20260503230004 | 39 | 58 | 1.0 | 2.0 | 0.00 | 0.00 | 0.00 | 87 | 1019.6 |
| 20260503225504 | 39 | 59 | 2.0 | 2.0 | 0.00 | 0.00 | 0.00 | 88 | 1019.5 |
| 20260503225005 | 39 | 82 | 2.0 | 3.0 | 0.00 | 0.00 | 0.00 | 89 | 1019.6 |
| 20260503224505 | 38 | 98 | 2.0 | 3.0 | 0.00 | 0.00 | 0.00 | 88 | 1019.7 |
| 20260503224004 | 38 | 109 | 1.0 | 2.0 | 0.00 | 0.00 | 0.00 | 87 | 1019.8 |
| 20260503223504 | 38 | 108 | 1.0 | 2.0 | 0.00 | 0.00 | 0.00 | 88 | 1019.8 |
| 20260503222504 | 37 | 114 | 2.0 | 3.0 | 0.00 | 0.00 | 0.00 | 86 | 1019.8 |
| 20260503222004 | 38 | 80 | 1.0 | 2.0 | 0.00 | 0.00 | 0.00 | 85 | 1019.9 |
| 20260503221505 | 38 | 250 | 1.0 | 2.0 | 0.00 | 0.00 | 0.00 | 84 | 1019.8 |
| 20260503221004 | 39 | 235 | 1.0 | 2.0 | 0.00 | 0.00 | 0.00 | 83 | 1019.8 |
| 20260503220504 | 40 | 1 | 0.0 | 1.0 | 0.00 | 0.00 | 0.00 | 85 | 1019.8 |
| 20260503220005 | 40 | 1 | 0.0 | 1.0 | 0.00 | 0.00 | 0.00 | 85 | 1019.8 |
| 20260503215004 | 40 | 91 | 2.0 | 2.0 | 0.00 | 0.00 | 0.00 | 84 | 1019.7 |
| 20260503214504 | 40 | 117 | 2.0 | 3.0 | 0.00 | 0.00 | 0.00 | 85 | 1019.9 |
| 20260503214005 | 40 | 121 | 3.0 | 4.0 | 0.00 | 0.00 | 0.00 | 86 | 1019.9 |
| 20260503213505 | 39 | 130 | 3.0 | 4.0 | 0.00 | 0.00 | 0.00 | 86 | 1020.0 |
| 20260503213004 | 39 | 97 | 3.0 | 5.0 | 0.00 | 0.00 | 0.00 | 84 | 1020.0 |
| 20260503212504 | 40 | 66 | 3.0 | 5.0 | 0.00 | 0.00 | 0.00 | 85 | 1019.9 |
| 20260503212005 | 40 | 90 | 2.0 | 4.0 | 0.00 | 0.00 | 0.00 | 85 | 1020.0 |
| 20260503211505 | 40 | 110 | 2.0 | 2.0 | 0.00 | 0.00 | 0.00 | 84 | 1020.1 |
| 20260503211005 | 40 | 113 | 2.0 | 2.0 | 0.00 | 0.00 | 0.00 | 84 | 1020.2 |
| 20260503210008 | 41 | 45 | 3.0 | 4.0 | 0.00 | 0.00 | 0.00 | 85 | 1020.4 |
| 20260503205505 | 41 | 11 | 3.0 | 4.0 | 0.00 | 0.00 | 0.00 | 85 | 1020.3 |
| 20260503205005 | 40 | 300 | 3.0 | 4.0 | 0.00 | 0.00 | 0.00 | 85 | 1020.3 |
| 20260503204505 | 40 | 251 | 4.0 | 4.0 | 0.00 | 0.00 | 0.00 | 83 | 1020.3 |
| 20260503204005 | 41 | 243 | 3.0 | 4.0 | 0.00 | 0.00 | 0.00 | 81 | 1020.4 |
| 20260503203505 | 42 | 44 | 3.0 | 4.0 | 0.00 | 0.00 | 0.00 | 81 | 1020.4 |
| 20260503203005 | 43 | 63 | 3.0 | 4.0 | 0.00 | 0.00 | 0.00 | 82 | 1020.3 |
| 20260503202504 | 43 | 76 | 4.0 | 4.0 | 0.00 | 0.00 | 0.00 | 81 | 1020.3 |
| 20260503202004 | 42 | 73 | 3.0 | 4.0 | 0.00 | 0.00 | 0.00 | 82 | 1020.3 |
| 20260503201504 | 42 | 1 | 3.0 | 4.0 | 0.00 | 0.00 | 0.00 | 81 | 1020.4 |
| 20260503201005 | 42 | 222 | 3.0 | 4.0 | 0.00 | 0.00 | 0.00 | 81 | 1020.5 |
| 20260503200005 | 42 | 141 | 3.0 | 4.0 | 0.00 | 0.00 | 0.00 | 80 | 1020.4 |
| 20260503195505 | 42 | 146 | 2.0 | 2.0 | 0.00 | 0.00 | 0.00 | 80 | 1020.5 |
| 20260503195005 | 43 | 138 | 2.0 | 2.0 | 0.00 | 0.00 | 0.00 | 80 | 1020.4 |
| 20260503194504 | 43 | 150 | 1.0 | 2.0 | 0.00 | 0.00 | 0.00 | 80 | 1020.4 |
| 20260503193504 | 45 | 261 | 2.0 | 2.0 | 0.00 | 0.00 | 0.00 | 72 | 1020.4 |
| 20260503193004 | 47 | 316 | 2.0 | 4.0 | 0.00 | 0.00 | 0.00 | 65 | 1020.4 |
| 20260503192504 | 47 | 13 | 3.0 | 5.0 | 0.00 | 0.00 | 0.00 | 65 | 1020.5 |
| 20260503191005 | 45 | 44 | 4.0 | 5.0 | 0.00 | 0.00 | 0.00 | 76 | 1020.4 |
| 20260503190504 | 44 | 37 | 3.0 | 5.0 | 0.00 | 0.00 | 0.00 | 76 | 1020.4 |
| 20260503190004 | 45 | 65 | 2.0 | 3.0 | 0.00 | 0.00 | 0.00 | 76 | 1020.2 |
| 20260503185506 | 44 | 99 | 3.0 | 4.0 | 0.00 | 0.00 | 0.00 | 75 | 1020.3 |
| 20260503185005 | 46 | 106 | 3.0 | 4.0 | 0.00 | 0.00 | 0.00 | 70 | 1020.3 |
| 20260503184505 | 46 | 91 | 3.0 | 4.0 | 0.00 | 0.00 | 0.00 | 70 | 1020.2 |
| 20260503184006 | 46 | 92 | 3.0 | 4.0 | 0.00 | 0.00 | 0.00 | 70 | 1020.2 |
| 20260503183005 | 45 | 58 | 1.0 | 3.0 | 0.00 | 0.00 | 0.00 | 73 | 1019.8 |
| 20260503182505 | 46 | 357 | 1.0 | 3.0 | 0.00 | 0.00 | 0.00 | 67 | 1019.9 |
| 20260503182006 | 47 | 300 | 2.0 | 2.0 | 0.00 | 0.00 | 0.00 | 67 | 1020.0 |
| 20260503181505 | 46 | 121 | 2.0 | 3.0 | 0.00 | 0.00 | 0.00 | 67 | 1019.8 |
| 20260503181005 | 47 | 140 | 2.0 | 3.0 | 0.00 | 0.00 | 0.00 | 65 | 1019.8 |
| 20260503180005 | 49 | 291 | 2.0 | 3.0 | 0.00 | 0.00 | 0.00 | 62 | 1019.5 |
| 20260503175505 | 50 | 287 | 3.0 | 3.0 | 0.00 | 0.00 | 0.00 | 60 | 1019.5 |
| 20260503175005 | 50 | 278 | 3.0 | 3.0 | 0.00 | 0.00 | 0.00 | 60 | 1019.5 |
| 20260503174505 | 51 | 308 | 2.0 | 3.0 | 0.00 | 0.00 | 0.00 | 60 | 1019.3 |
| 20260503174005 | 51 | 346 | 2.0 | 2.0 | 0.00 | 0.00 | 0.00 | 59 | 1019.3 |
| 20260503173504 | 51 | 325 | 2.0 | 2.0 | 0.00 | 0.00 | 0.00 | 59 | 1019.1 |
| 20260503173005 | 52 | 290 | 3.0 | 4.0 | 0.00 | 0.00 | 0.00 | 56 | 1019.0 |
| 20260503172505 | 53 | 273 | 3.0 | 4.0 | 0.00 | 0.00 | 0.00 | 54 | 1019.0 |
| 20260503172005 | 53 | 272 | 3.0 | 4.0 | 0.00 | 0.00 | 0.00 | 53 | 1018.9 |
| 20260503171005 | 54 | 313 | 4.0 | 7.0 | 0.00 | 0.00 | 0.00 | 51 | 1018.6 |
| 20260503170505 | 54 | 326 | 6.0 | 8.0 | 0.00 | 0.00 | 0.00 | 51 | 1018.6 |
| 20260503151005 | 56 | 33 | 15.0 | 19.0 | 0.00 | 0.00 | 0.00 | 44 | 1017.9 |
| 20260503131003 | 54 | 290 | 13.0 | 15.0 | 0.00 | 0.00 | 0.00 | 61 | 1018.1 |
| 20260503130503 | 54 | 302 | 14.0 | 15.0 | 0.00 | 0.00 | 0.00 | 61 | 1018.3 |
| 20260503110503 | 54 | 36 | 13.0 | 17.0 | 0.00 | 0.00 | 0.00 | 55 | 1018.3 |
| 20260503090503 | 58 | 178 | 5.0 | 9.0 | 0.00 | 0.00 | 0.00 | 53 | 1017.0 |
| 20260503081503 | 56 | 19 | 3.0 | 5.0 | 0.00 | 0.01 | 0.00 | 54 | 1017.1 |
| 20260503081004 | 56 | 71 | 4.0 | 5.0 | 0.00 | 0.01 | 0.00 | 53 | 1017.2 |
| 20260503080504 | 56 | 176 | 3.0 | 4.0 | 0.00 | 0.01 | 0.00 | 54 | 1017.3 |
| 20260503072503 | 53 | 190 | 3.0 | 4.0 | 0.00 | 0.01 | 0.00 | 70 | 1017.3 |
| 20260503072004 | 53 | 194 | 2.0 | 4.0 | 0.00 | 0.01 | 0.00 | 68 | 1017.2 |
| 20260503071503 | 53 | 171 | 2.0 | 4.0 | 0.00 | 0.01 | 0.00 | 67 | 1017.1 |
| 20260503071004 | 52 | 213 | 3.0 | 4.0 | 0.00 | 0.01 | 0.00 | 68 | 1017.1 |
| 20260503070503 | 52 | 224 | 2.0 | 4.0 | 0.00 | 0.01 | 0.00 | 71 | 1017.1 |